Hourly Weather Rublino

Today, 21 April, Wednesday

Time Temperature Precipitation Wind Pressure Humidity
00:00 +1°C° 0 mm 4 mps 735 mmHg 96%
01:00 +1°C° 0 mm 4 mps 735 mmHg 96%
02:00 +2°C° 0 mm 3 mps 735 mmHg 96%
03:00 +2°C° 0 mm 3 mps 735 mmHg 96%
04:00 +2°C° 0 mm 3 mps 735 mmHg 96%
05:00 +2°C° 0 mm 3 mps 735 mmHg 96%
06:00 +2°C° 0 mm 3 mps 735 mmHg 94%
07:00 +2°C° 0 mm 3 mps 736 mmHg 92%
08:00 +4°C° 0 mm 2 mps 736 mmHg 90%
09:00 +4°C° 0 mm 3 mps 737 mmHg 84%
10:00 +4°C° 0 mm 3 mps 737 mmHg 78%
11:00 +5°C° 0 mm 3 mps 737 mmHg 72%
12:00 +5°C° 0 mm 3 mps 737 mmHg 73%
13:00 +7°C° 0 mm 3 mps 738 mmHg 73%
14:00 +6°C° 0 mm 4 mps 738 mmHg 74%
15:00 +5°C° 0.1 mm 3 mps 738 mmHg 80%
16:00 +4°C° 0.1 mm 3 mps 739 mmHg 85%
17:00 +4°C° 0.1 mm 3 mps 739 mmHg 91%
18:00 +4°C° 0.3 mm 3 mps 740 mmHg 92%
19:00 +3°C° 0.3 mm 3 mps 740 mmHg 93%
20:00 +3°C° 0.3 mm 3 mps 740 mmHg 94%
21:00 +3°C° 0 mm 3 mps 741 mmHg 93%
22:00 +3°C° 0 mm 3 mps 741 mmHg 93%
23:00 +3°C° 0 mm 3 mps 741 mmHg 92%

Tomorrow, 22 April, Thursday

Time Temperature Precipitation Wind Pressure Humidity
00:00 +2°C° 0 mm 3 mps 741 mmHg 93%
01:00 +2°C° 0 mm 3 mps 741 mmHg 95%
02:00 +1°C° 0 mm 3 mps 742 mmHg 96%
03:00 +1°C° 0 mm 3 mps 742 mmHg 95%
04:00 +1°C° 0 mm 3 mps 742 mmHg 95%
05:00 +2°C° 0 mm 3 mps 742 mmHg 95%
06:00 +3°C° 0 mm 4 mps 742 mmHg 90%
07:00 +5°C° 0 mm 4 mps 742 mmHg 84%
08:00 +7°C° 0 mm 5 mps 742 mmHg 79%
09:00 +9°C° 0.1 mm 5 mps 742 mmHg 74%
10:00 +10°C° 0.1 mm 6 mps 742 mmHg 70%
11:00 +13°C° 0.1 mm 6 mps 742 mmHg 65%
12:00 +11°C° 0.4 mm 6 mps 742 mmHg 68%
13:00 +11°C° 0.4 mm 6 mps 742 mmHg 70%
14:00 +10°C° 0.4 mm 7 mps 742 mmHg 73%
15:00 +11°C° 0.3 mm 6 mps 742 mmHg 72%
16:00 +11°C° 0.3 mm 6 mps 742 mmHg 71%
17:00 +11°C° 0.3 mm 6 mps 742 mmHg 71%
18:00 +10°C° 0.1 mm 5 mps 742 mmHg 75%
19:00 +10°C° 0.1 mm 4 mps 742 mmHg 79%
20:00 +8°C° 0.1 mm 4 mps 743 mmHg 84%
21:00 +8°C° 0.1 mm 4 mps 743 mmHg 84%
22:00 +7°C° 0.1 mm 4 mps 742 mmHg 84%
23:00 +7°C° 0.1 mm 5 mps 742 mmHg 84%

Day after tomorrow, 23 April, Friday

Time Temperature Precipitation Wind Pressure Humidity
00:00 +7°C° 0 mm 5 mps 742 mmHg 83%
01:00 +7°C° 0 mm 5 mps 742 mmHg 83%
02:00 +7°C° 0 mm 5 mps 742 mmHg 82%
03:00 +7°C° 0 mm 5 mps 742 mmHg 83%
04:00 +7°C° 0 mm 5 mps 742 mmHg 83%
05:00 +7°C° 0 mm 5 mps 742 mmHg 84%
06:00 +8°C° 0.1 mm 5 mps 742 mmHg 80%
07:00 +9°C° 0.1 mm 6 mps 742 mmHg 76%
08:00 +11°C° 0.1 mm 6 mps 742 mmHg 72%
09:00 +12°C° 0.1 mm 7 mps 742 mmHg 66%
10:00 +14°C° 0.1 mm 7 mps 741 mmHg 60%
11:00 +15°C° 0.1 mm 8 mps 741 mmHg 54%
12:00 +15°C° 0.4 mm 7 mps 741 mmHg 57%
13:00 +15°C° 0.4 mm 7 mps 740 mmHg 60%
14:00 +14°C° 0.4 mm 6 mps 740 mmHg 62%
15:00 +13°C° 1.1 mm 5 mps 740 mmHg 70%
16:00 +11°C° 1.1 mm 4 mps 740 mmHg 78%
17:00 +10°C° 1.1 mm 3 mps 739 mmHg 86%
18:00 +9°C° 2.1 mm 3 mps 739 mmHg 88%
19:00 +8°C° 2.1 mm 3 mps 739 mmHg 91%
20:00 +7°C° 2.1 mm 2 mps 739 mmHg 94%
21:00 +5°C° 1.2 mm 3 mps 739 mmHg 94%
22:00 +4°C° 1.2 mm 4 mps 739 mmHg 95%
23:00 +2°C° 1.2 mm 5 mps 739 mmHg 95%

24 April, Saturday

Time Temperature Precipitation Wind Pressure Humidity
00:00 +2°C° 0.8 mm 5 mps 739 mmHg 95%
01:00 +3°C° 0.8 mm 4 mps 739 mmHg 96%
02:00 +1°C° 0.8 mm 4 mps 739 mmHg 96%
03:00 +2°C° 0.4 mm 3 mps 739 mmHg 95%
04:00 +3°C° 0.4 mm 3 mps 739 mmHg 93%
05:00 +3°C° 0.4 mm 3 mps 739 mmHg 92%
06:00 +3°C° 0 mm 4 mps 739 mmHg 84%
07:00 +3°C° 0 mm 5 mps 739 mmHg 76%
08:00 +5°C° 0 mm 5 mps 739 mmHg 69%
09:00 +4°C° 0 mm 6 mps 739 mmHg 63%
10:00 +5°C° 0 mm 6 mps 739 mmHg 57%
11:00 +6°C° 0 mm 7 mps 739 mmHg 51%
12:00 +6°C° 0.2 mm 7 mps 739 mmHg 51%
13:00 +6°C° 0.2 mm 7 mps 739 mmHg 51%
14:00 +6°C° 0.2 mm 8 mps 739 mmHg 51%
15:00 +5°C° 0.2 mm 7 mps 739 mmHg 55%
16:00 +5°C° 0.2 mm 7 mps 739 mmHg 59%
17:00 +4°C° 0.2 mm 6 mps 739 mmHg 62%
18:00 +3°C° 0 mm 5 mps 739 mmHg 68%
19:00 +2°C° 0 mm 5 mps 740 mmHg 73%
20:00 +1°C° 0 mm 4 mps 740 mmHg 78%
21:00 0°C° 0 mm 4 mps 740 mmHg 80%
22:00 0°C° 0 mm 4 mps 740 mmHg 82%
23:00 -1°C° 0 mm 4 mps 740 mmHg 85%

25 April, Sunday

Time Temperature Precipitation Wind Pressure Humidity
00:00 -1°C° 0 mm 4 mps 740 mmHg 87%
01:00 0°C° 0 mm 3 mps 740 mmHg 89%
02:00 -1°C° 0 mm 3 mps 740 mmHg 91%
03:00 -1°C° 0 mm 3 mps 740 mmHg 91%
04:00 -1°C° 0 mm 3 mps 740 mmHg 92%
05:00 -1°C° 0 mm 3 mps 740 mmHg 93%
06:00 0°C° 0 mm 4 mps 740 mmHg 85%
07:00 +1°C° 0 mm 4 mps 740 mmHg 77%
08:00 +3°C° 0 mm 5 mps 740 mmHg 70%
09:00 +5°C° 0.3 mm 5 mps 740 mmHg 64%
10:00 +4°C° 0.3 mm 6 mps 740 mmHg 59%
11:00 +5°C° 0.3 mm 7 mps 740 mmHg 53%
12:00 +5°C° 0.3 mm 7 mps 740 mmHg 53%
13:00 +5°C° 0.3 mm 7 mps 740 mmHg 52%
14:00 +5°C° 0.3 mm 7 mps 740 mmHg 51%
15:00 +5°C° 0.1 mm 7 mps 740 mmHg 53%
16:00 +4°C° 0.1 mm 6 mps 740 mmHg 54%
17:00 +4°C° 0.1 mm 6 mps 740 mmHg 55%
18:00 +3°C° 0 mm 5 mps 740 mmHg 63%
19:00 +1°C° 0 mm 4 mps 740 mmHg 70%
20:00 +1°C° 0 mm 3 mps 740 mmHg 77%
21:00 +1°C° 0 mm 3 mps 740 mmHg 80%
22:00 0°C° 0 mm 3 mps 740 mmHg 82%
23:00 0°C° 0 mm 3 mps 740 mmHg 85%

26 April, Monday

Time Temperature Precipitation Wind Pressure Humidity
00:00 -1°C° 0 mm 3 mps 740 mmHg 85%
01:00 -1°C° 0 mm 3 mps 740 mmHg 86%
02:00 -1°C° 0 mm 3 mps 740 mmHg 86%
03:00 -1°C° 0 mm 3 mps 740 mmHg 86%
04:00 -1°C° 0 mm 3 mps 740 mmHg 86%
05:00 -1°C° 0 mm 3 mps 740 mmHg 86%
06:00 0°C° 0 mm 3 mps 740 mmHg 80%
07:00 +1°C° 0 mm 4 mps 740 mmHg 74%
08:00 +3°C° 0 mm 4 mps 740 mmHg 68%
09:00 +3°C° 0.2 mm 5 mps 740 mmHg 65%
10:00 +5°C° 0.2 mm 5 mps 740 mmHg 62%
11:00 +5°C° 0.2 mm 5 mps 740 mmHg 59%
12:00 +5°C° 0.2 mm 5 mps 740 mmHg 59%
13:00 +5°C° 0.2 mm 5 mps 740 mmHg 59%
14:00 +5°C° 0.2 mm 5 mps 739 mmHg 59%
15:00 +5°C° 0.1 mm 5 mps 739 mmHg 60%
16:00 +5°C° 0.1 mm 5 mps 739 mmHg 61%
17:00 +4°C° 0.1 mm 4 mps 739 mmHg 62%
18:00 +3°C° 0 mm 4 mps 740 mmHg 68%
19:00 +2°C° 0 mm 3 mps 740 mmHg 75%
20:00 0°C° 0 mm 3 mps 740 mmHg 82%
21:00 0°C° 0 mm 3 mps 740 mmHg 83%
22:00 -1°C° 0 mm 2 mps 740 mmHg 85%
23:00 -2°C° 0 mm 2 mps 740 mmHg 87%
Show more